Home   Weather   Kelowna   Past weeks
Flag for Canada

Past Weather in Kelowna, British Columbia, Canada — Yesterday and Last 2 Weeks

Now
32 °F

Overcast.


Feels Like: 29 °F
Forecast: 40 / 34 °F
Wind: 3 mph from Northwest

Location: Kelowna Airport

Current Time: Jan 18, 2019 at 3:44:20 am

Latest Report: Jan 18, 2019 at 3:05 am


Visibility: 7 mi

Pressure: 29.96 "Hg

Humidity: 100%

Dew Point: 32 °F

Location of KelownaLocation

Past Weather in Kelowna — Graph

°F

Kelowna Temperature Yesterday

Maximum temperature yesterday: 32 °F (at 7:00 pm)
Minimum temperature yesterday: 28 °F (at 12:00 am)
Average temperature yesterday: 30 °F

High & Low Weather Summary for the Past Weeks

 TemperatureHumidityPressure
High46 °F (Jan 4, 1:00 pm)100% (Jan 4, 10:17 pm)30.51 "Hg (Jan 4, 10:17 pm)
Low16 °F (Jan 8, 1:00 am)43% (Jan 6, 2:00 pm)29.28 "Hg (Jan 6, 4:53 am)
Average31 °F89%30.02 "Hg
* Reported Jan 3 2:00 am — Jan 18 2:08 am, Kelowna. Weather by CustomWeather, © 2019

Note: Actual official high and low records may vary slightly from our data, if they occured in-between our weather recording intervals... More about our weather records

Advertising

Kelowna Weather History for the Previous 24 Hours

Scroll right to see more
 ConditionsComfort  
Time TempWeatherWind HumidityBarometerVisibility
2:08 am
Fri, Jan 18
32 °FIce fog.3 mph100%29.94 "Hg6 mi
1:56 am30 °FMostly cloudy.No wind100%29.93 "Hg8 mi
1:41 am30 °FIce fog.2 mph100%29.93 "Hg6 mi
1:31 am32 °FIce fog.No wind93%29.92 "Hg5 mi
1:00 am32 °FMostly cloudy.No wind93%29.91 "Hg9 mi
12:00 am32 °FMostly cloudy.No wind93%29.89 "Hg7 mi
11:00 pm
Thu, Jan 17
30 °FOvercast.2 mph100%29.87 "Hg8 mi
10:35 pm32 °FOvercast.2 mph93%29.85 "Hg9 mi
10:00 pm32 °FOvercast.2 mph93%29.84 "Hg9 mi
9:23 pm32 °FMostly cloudy.2 mph93%29.83 "Hg9 mi
9:00 pm30 °FOvercast.No wind100%29.82 "Hg9 mi
8:00 pm30 °FOvercast.No wind100%29.80 "Hg9 mi
7:00 pm32 °FOvercast.2 mph93%29.79 "Hg9 mi
6:00 pm30 °FLow clouds.2 mph100%29.78 "Hg9 mi
5:00 pm30 °FOvercast.3 mph100%29.76 "Hg9 mi
4:00 pm30 °FOvercast.No wind100%29.75 "Hg9 mi
3:26 pm30 °FOvercast.No wind100%29.75 "Hg8 mi
3:07 pm30 °FLight snow. Overcast.No wind100%29.74 "Hg6 mi
2:00 pm30 °FLight snow. Overcast.No wind100%29.72 "Hg1 mi
1:22 pm30 °FLight snow. Cloudy.No wind93%29.73 "Hg1 mi
1:01 pm30 °FLight snow. Mostly cloudy.No wind93%29.73 "Hg1 mi
12:33 pm30 °FLight snow. More clouds than sun.No wind93%29.73 "Hg1 mi
11:53 am30 °FLight snow. Mostly cloudy.2 mph93%29.73 "Hg1 mi
11:44 am30 °FLight snow. Low clouds.2 mph93%29.74 "Hg1 mi
11:28 am30 °FLight snow. Overcast.No wind93%29.74 "Hg2 mi
11:17 am28 °FLight snow. Overcast.No wind100%29.75 "Hg2 mi
11:00 am28 °FLight snow. Mostly cloudy.No wind100%29.76 "Hg2 mi
10:08 am28 °FLight snow. Overcast.3 mph100%29.76 "Hg1 mi
9:28 am30 °FLight snow. More clouds than sun.No wind86%29.76 "Hg4 mi
9:00 am28 °FLight snow. Overcast.2 mph93%29.75 "Hg9 mi
8:16 am28 °FLight snow. More clouds than sun.3 mph93%29.74 "Hg9 mi
8:00 am28 °FOvercast.2 mph93%29.75 "Hg9 mi
7:00 am28 °FOvercast.2 mph93%29.76 "Hg9 mi
6:00 am28 °FOvercast.No wind93%29.78 "Hg9 mi
5:00 am28 °FOvercast.2 mph93%29.80 "Hg9 mi
4:00 am28 °FMostly cloudy.No wind93%29.82 "Hg9 mi
3:00 am28 °FOvercast.No wind93%29.84 "Hg9 mi
Weather by CustomWeather, © 2019

See weather overview